GW7038 Weather Reports


Display with metric or nautical units.
time (UTC)temp
F
wind
direction
speed
MPH
gust
MPH
rain 1hr
in
rain 24hr
in
rain mn
in
humidity
%
barometer
mb
20260505054805 41 286 1.0 5.0 0.00 0.03 0.03 91 1004.9
20260505054605 41 286 1.0 5.0 0.00 0.03 0.03 91 1005.0
20260505054405 41 286 1.0 5.0 0.00 0.03 0.03 90 1005.1
20260505054157 41 285 1.0 5.0 0.00 0.03 0.03 90 1004.9
20260505053950 41 285 2.0 5.0 0.00 0.03 0.03 90 1004.9
20260505053744 41 285 2.0 5.0 0.00 0.03 0.03 90 1004.9
20260505053534 41 285 2.0 5.0 0.00 0.03 0.03 90 1004.9
20260505053328 41 286 2.0 5.0 0.00 0.03 0.03 90 1004.9
20260505053122 41 288 1.0 5.0 0.00 0.03 0.03 89 1004.9
20260505052922 41 298 1.0 4.0 0.00 0.03 0.03 89 1005.0
20260505052719 41 313 1.0 4.0 0.00 0.03 0.03 89 1004.9
20260505052155 41 12 0.0 3.0 0.00 0.03 0.03 89 1004.8
20260505051955 41 12 0.0 3.0 0.00 0.03 0.03 88 1004.8
20260505051754 41 12 0.0 3.0 0.00 0.03 0.03 88 1004.9
20260505051553 41 12 0.0 0.0 0.00 0.03 0.03 88 1004.8
20260505051353 41 12 0.0 0.0 0.00 0.03 0.03 88 1004.9
20260505051147 41 12 0.0 2.0 0.00 0.03 0.03 88 1004.9
20260505050944 41 12 0.0 2.0 0.00 0.03 0.03 88 1004.9
20260505050733 41 12 1.0 5.0 0.00 0.03 0.03 88 1004.7
20260505050530 41 12 2.0 5.0 0.00 0.03 0.03 88 1004.7
20260505050327 41 12 2.0 5.0 0.00 0.03 0.03 88 1004.6
20260505050117 41 11 2.0 5.0 0.00 0.03 0.03 88 1004.5
20260505041602 42 5 2.0 7.0 0.00 0.03 0.03 87 1003.8
20260505041357 42 5 2.0 7.0 0.00 0.03 0.03 87 1003.8
20260505040836 42 5 3.0 7.0 0.00 0.03 0.03 87 1003.7
20260505040626 42 5 3.0 7.0 0.00 0.03 0.03 87 1003.6
20260505040425 42 5 3.0 7.0 0.00 0.03 0.03 87 1003.5
20260505040224 42 5 3.0 7.0 0.00 0.03 0.03 87 1003.6
20260505040023 42 33 3.0 7.0 0.00 0.03 0.03 87 1003.6
20260505035822 42 29 3.0 7.0 0.00 0.03 0.03 87 1003.5
20260505035623 42 346 2.0 6.0 0.00 0.03 0.03 87 1003.6
20260505035418 42 346 2.0 6.0 0.00 0.03 0.03 87 1003.5
20260505035207 42 24 2.0 6.0 0.00 0.03 0.03 87 1003.6
20260505035001 42 11 2.0 5.0 0.00 0.03 0.03 87 1003.8
20260505034756 42 316 2.0 5.0 0.00 0.03 0.03 87 1003.9
20260505034555 42 312 2.0 5.0 0.00 0.03 0.03 87 1003.9
20260505034346 42 307 2.0 5.0 0.00 0.03 0.03 87 1003.9
20260505034140 42 331 2.0 5.0 0.00 0.03 0.03 86 1003.9
20260505033935 42 325 3.0 9.0 0.00 0.03 0.03 86 1003.9
20260505033731 42 323 3.0 9.0 0.00 0.03 0.03 86 1003.8
20260505033526 42 342 3.0 9.0 0.00 0.02 0.03 86 1003.7
20260505033004 42 355 5.0 9.0 0.00 0.02 0.02 86 1003.6
20260505032758 42 9 5.0 9.0 0.00 0.02 0.02 86 1003.6
20260505032552 42 5 5.0 9.0 0.00 0.02 0.02 86 1003.6
20260505032035 42 12 4.0 9.0 0.00 0.02 0.02 86 1003.6
20260505031834 42 334 3.0 7.0 0.00 0.02 0.02 86 1003.7
20260505031628 42 325 3.0 6.0 0.00 0.02 0.02 86 1003.8
20260505031416 42 341 2.0 6.0 0.00 0.02 0.02 86 1003.8
20260505031210 42 348 1.0 5.0 0.00 0.02 0.02 86 1003.7
20260505031007 42 323 1.0 5.0 0.00 0.02 0.02 86 1003.6
20260505030443 42 305 1.0 4.0 0.00 0.02 0.02 86 1003.7
20260505030238 42 305 1.0 4.0 0.00 0.02 0.02 86 1003.7
20260505030033 42 305 1.0 4.0 0.00 0.02 0.02 86 1003.7
20260505025831 42 333 1.0 4.0 0.00 0.02 0.02 85 1003.6
20260505025629 42 333 1.0 4.0 0.00 0.02 0.02 85 1003.6
20260505025426 42 333 1.0 4.0 0.00 0.02 0.02 85 1003.6
20260505025225 42 338 1.0 4.0 0.00 0.02 0.02 85 1003.6
20260505025024 42 317 1.0 4.0 0.00 0.02 0.02 86 1003.6
20260505024817 42 32 0.0 3.0 0.00 0.02 0.02 86 1003.6
20260505024251 42 32 0.0 3.0 0.00 0.02 0.02 85 1003.4
20260505024050 43 32 0.0 3.0 0.00 0.02 0.02 85 1003.4
20260505023846 43 32 0.0 1.0 0.00 0.02 0.02 85 1003.4
20260505023640 43 32 0.0 1.0 0.00 0.02 0.02 85 1003.3
20260505023437 43 32 0.0 1.0 0.00 0.02 0.02 84 1003.2
20260505023235 43 32 0.0 1.0 0.00 0.02 0.02 84 1003.2
20260505023026 43 32 0.0 8.0 0.00 0.02 0.02 83 1003.2
20260505022826 43 32 0.0 8.0 0.00 0.02 0.02 82 1003.1
20260505022301 43 32 1.0 8.0 0.00 0.02 0.02 82 1003.2
20260505022052 43 32 2.0 8.0 0.00 0.02 0.02 81 1003.2
20260505021851 44 32 2.0 8.0 0.00 0.02 0.02 81 1003.4
20260505021649 44 32 3.0 8.0 0.00 0.02 0.02 81 1003.3
20260505021117 44 33 2.0 6.0 0.00 0.02 0.02 80 1003.3
20260505015903 45 5 2.0 9.0 0.06 0.02 0.02 77 1003.3
20260505015654 45 5 2.0 9.0 0.08 0.02 0.02 76 1003.2
20260505015449 45 5 3.0 9.0 0.08 0.02 0.02 76 1003.2
20260505015246 45 9 3.0 9.0 0.08 0.02 0.02 75 1003.3
20260505015040 46 9 4.0 9.0 0.08 0.01 0.02 75 1003.2
20260505014831 46 19 4.0 9.0 0.00 0.01 0.01 73 1003.2
20260505014628 46 355 5.0 9.0 0.00 0.01 0.01 73 1003.1
20260505014424 46 22 4.0 13.0 0.00 0.00 0.01 72 1003.0
20260505014221 47 32 5.0 13.0 0.00 0.00 0.00 71 1003.0
20260505014022 47 51 5.0 13.0 0.00 0.00 0.00 70 1002.9
20260505013823 47 350 5.0 13.0 0.00 0.00 0.00 68 1003.2
20260505013620 47 355 5.0 13.0 0.00 0.00 0.00 67 1003.3
20260505013420 48 10 6.0 13.0 0.00 0.00 0.00 66 1003.2
20260505013211 48 19 6.0 13.0 0.00 0.00 0.00 64 1003.2
20260505013008 48 300 7.0 13.0 0.00 0.00 0.00 62 1003.3
20260505012758 49 321 6.0 13.0 0.00 0.00 0.00 60 1003.2
20260505012553 49 21 6.0 13.0 0.00 0.00 0.00 59 1003.3
20260505012347 49 277 5.0 10.0 0.00 0.00 0.00 58 1002.9
20260505012145 49 286 5.0 10.0 0.00 0.00 0.00 57 1002.7
20260505011938 49 277 5.0 9.0 0.00 0.00 0.00 56 1002.8
20260505011736 49 279 5.0 9.0 0.00 0.00 0.00 56 1002.8
20260505011529 49 276 5.0 9.0 0.00 0.00 0.00 55 1002.8
20260505011002 50 270 5.0 9.0 0.00 0.00 0.00 54 1002.5
20260505010752 50 281 4.0 9.0 0.00 0.00 0.00 54 1002.5
20260505010543 50 284 4.0 9.0 0.00 0.00 0.00 54 1002.2
20260505010018 51 310 5.0 9.0 0.00 0.00 0.00 52 1002.0
20260505005125 52 0 5.0 14.0 0.00 0.00 0.00 48 1001.7
20260505004914 52 355 5.0 14.0 0.00 0.00 0.00 48 1001.8
20260505004705 52 15 5.0 14.0 0.00 0.00 0.00 48 1001.6
20260505004504 52 5 5.0 14.0 0.00 0.00 0.00 47 1001.4
20260505003307 53 346 5.0 11.0 0.00 0.00 0.00 46 1001.4
20260505003106 53 345 5.0 11.0 0.00 0.00 0.00 46 1001.4
20260505002903 53 347 6.0 15.0 0.00 0.00 0.00 46 1001.4
20260505002655 53 322 7.0 15.0 0.00 0.00 0.00 45 1001.3
20260505002451 53 238 7.0 15.0 0.00 0.00 0.00 45 1001.3
20260505002250 54 338 7.0 15.0 0.00 0.00 0.00 45 1001.2
20260505002042 54 346 7.0 15.0 0.00 0.00 0.00 44 1001.2
20260505001838 54 355 7.0 15.0 0.00 0.00 0.00 44 1001.2
20260505001636 54 335 6.0 15.0 0.00 0.00 0.00 43 1001.3
20260505001429 54 348 6.0 15.0 0.00 0.00 0.00 43 1001.4
20260505001227 55 26 6.0 15.0 0.00 0.00 0.00 41 1001.4
20260505001023 55 36 6.0 15.0 0.00 0.00 0.00 41 1001.4
20260505000505 55 15 5.0 12.0 0.00 0.00 0.00 41 1001.2
20260505000306 55 24 5.0 12.0 0.00 0.00 0.00 41 1001.1
20260505000107 55 40 5.0 14.0 0.00 0.00 0.00 42 1001.2
20260504235215 55 50 6.0 14.0 0.00 0.00 0.00 43 1001.2
20260504235013 55 22 6.0 14.0 0.00 0.00 0.00 42 1001.2
20260504234809 55 28 6.0 14.0 0.00 0.00 0.00 42 1001.2
20260504234606 55 15 6.0 14.0 0.00 0.00 0.00 43 1001.1
20260504234359 55 19 6.0 14.0 0.00 0.00 0.00 42 1001.2
20260504234157 55 29 5.0 14.0 0.00 0.00 0.00 42 1001.2
20260504233948 55 346 6.0 14.0 0.00 0.00 0.00 43 1001.3
20260504233739 55 19 7.0 14.0 0.00 0.00 0.00 42 1001.3
20260504233537 55 9 7.0 14.0 0.00 0.00 0.00 41 1001.2
20260504233333 55 61 7.0 14.0 0.00 0.00 0.00 41 1001.1
20260504233127 56 21 6.0 14.0 0.00 0.00 0.00 42 1001.2
20260504232927 56 29 6.0 14.0 0.00 0.00 0.00 41 1001.4
20260504232722 56 63 6.0 12.0 0.00 0.00 0.00 41 1001.3
20260504232517 56 340 6.0 10.0 0.00 0.00 0.00 40 1001.2
20260504232312 55 30 6.0 10.0 0.00 0.00 0.00 39 1001.3
20260504232110 55 351 6.0 19.0 0.00 0.00 0.00 40 1001.1
20260504231908 55 348 6.0 19.0 0.00 0.00 0.00 41 1001.1
20260504231659 55 351 7.0 19.0 0.00 0.00 0.00 42 1001.0
20260504231455 55 355 8.0 19.0 0.00 0.00 0.00 43 1001.0
20260504231253 55 338 8.0 19.0 0.00 0.00 0.00 43 1001.0
20260504230042 56 25 6.0 18.0 0.00 0.00 0.00 40 1000.9
20260504225833 56 327 5.0 18.0 0.00 0.00 0.00 39 1000.8
20260504225629 56 309 6.0 18.0 0.00 0.00 0.00 38 1000.8
20260504225427 56 282 6.0 18.0 0.00 0.00 0.00 38 1000.8
20260504225222 56 310 7.0 18.0 0.00 0.00 0.00 39 1000.8
20260504225015 56 332 8.0 18.0 0.00 0.00 0.00 38 1000.8
20260504224813 56 275 8.0 18.0 0.00 0.00 0.00 38 1000.6
20260504224605 56 333 8.0 18.0 0.00 0.00 0.00 39 1000.8
20260504224406 56 280 7.0 18.0 0.00 0.00 0.00 36 1000.9
20260504224204 57 347 7.0 17.0 0.00 0.00 0.00 36 1000.8
20260504224001 57 315 6.0 15.0 0.00 0.00 0.00 35 1000.9
20260504223801 58 288 5.0 12.0 0.00 0.00 0.00 35 1000.7
20260504223551 58 180 5.0 12.0 0.00 0.00 0.00 32 1000.6
20260504223349 58 111 4.0 12.0 0.00 0.00 0.00 33 1000.9
20260504222827 58 254 2.0 5.0 0.00 0.00 0.00 32 1000.7
20260504222257 59 254 2.0 5.0 0.00 0.00 0.00 33 1000.7
20260504222052 59 254 2.0 9.0 0.00 0.00 0.00 33 1000.6
20260504221845 59 238 2.0 9.0 0.00 0.00 0.00 32 1000.5
20260504221637 59 198 2.0 9.0 0.00 0.00 0.00 31 1000.6
20260504221428 59 201 2.0 9.0 0.00 0.00 0.00 32 1000.6
20260504221222 60 201 2.0 9.0 0.00 0.00 0.00 33 1000.6
20260504221013 60 200 2.0 9.0 0.00 0.00 0.00 33 1000.7
20260504220806 60 207 2.0 9.0 0.00 0.00 0.00 34 1000.6
20260504220557 60 207 2.0 9.0 0.00 0.00 0.00 33 1000.7
20260504220347 60 112 2.0 9.0 0.00 0.00 0.00 34 1000.7
20260504220141 61 287 1.0 6.0 0.00 0.00 0.00 32 1000.5
20260504215940 61 215 1.0 6.0 0.00 0.00 0.00 33 1000.6
20260504215739 61 275 1.0 6.0 0.00 0.00 0.00 31 1000.6
20260504215528 61 134 1.0 9.0 0.00 0.00 0.00 28 1000.6
20260504214958 61 65 3.0 9.0 0.00 0.00 0.00 33 1000.5
20260504214757 61 65 4.0 9.0 0.00 0.00 0.00 29 1000.5
20260504214232 61 14 5.0 9.0 0.00 0.00 0.00 29 1000.4
20260504214031 61 33 5.0 9.0 0.00 0.00 0.00 29 1000.4
20260504213513 61 76 3.0 8.0 0.00 0.00 0.00 28 1000.4
20260504212942 61 323 2.0 9.0 0.00 0.00 0.00 31 1000.3
20260504212740 61 295 3.0 9.0 0.00 0.00 0.00 30 1000.4
20260504212536 61 292 4.0 9.0 0.00 0.00 0.00 28 1000.4
20260504212329 61 292 4.0 9.0 0.00 0.00 0.00 27 1000.4
20260504212122 61 313 5.0 9.0 0.00 0.00 0.00 28 1000.4
20260504211913 61 340 5.0 9.0 0.00 0.00 0.00 27 1000.4
20260504211712 62 327 5.0 9.0 0.00 0.00 0.00 27 1000.3
20260504211503 62 303 5.0 9.0 0.00 0.00 0.00 27 1000.4
20260504211300 62 5 5.0 9.0 0.00 0.00 0.00 27 1000.4
20260504211059 62 21 4.0 8.0 0.00 0.00 0.00 30 1000.3
20260504210855 62 22 4.0 8.0 0.00 0.00 0.00 26 1000.3
20260504210653 62 33 3.0 7.0 0.00 0.00 0.00 27 1000.4
20260504210448 62 19 2.0 7.0 0.00 0.00 0.00 27 1000.4
20260504205927 62 197 1.0 6.0 0.00 0.00 0.00 26 1000.2
20260504205718 62 197 1.0 6.0 0.00 0.00 0.00 28 1000.2
20260504205517 62 197 2.0 13.0 0.00 0.00 0.00 25 1000.3
20260504205314 62 197 3.0 13.0 0.00 0.00 0.00 25 1000.3
20260504205108 62 197 4.0 13.0 0.00 0.00 0.00 26 1000.3
20260504204908 62 197 5.0 13.0 0.00 0.00 0.00 25 1000.3
20260504204352 62 281 7.0 13.0 0.00 0.00 0.00 25 1000.3
20260504204152 63 285 6.0 13.0 0.00 0.00 0.00 26 1000.4
20260504203950 63 300 5.0 13.0 0.00 0.00 0.00 26 1000.4
20260504203741 63 267 4.0 13.0 0.00 0.00 0.00 26 1000.5
20260504203216 63 187 3.0 12.0 0.00 0.00 0.00 26 1000.6
20260504203007 63 182 3.0 8.0 0.00 0.00 0.00 27 1000.6
20260504202801 62 150 3.0 8.0 0.00 0.00 0.00 25 1000.6
20260504202600 62 155 3.0 8.0 0.00 0.00 0.00 25 1000.7
20260504202350 62 193 3.0 8.0 0.00 0.00 0.00 26 1000.6
20260504202149 62 90 3.0 8.0 0.00 0.00 0.00 29 1000.6
20260504201945 62 57 2.0 8.0 0.00 0.00 0.00 28 1000.6
20260504201742 62 16 2.0 7.0 0.00 0.00 0.00 28 1000.6
20260504201534 62 23 1.0 7.0 0.00 0.00 0.00 28 1000.7
20260504201330 62 257 1.0 5.0 0.00 0.00 0.00 28 1000.8
20260504200805 61 256 1.0 9.0 0.00 0.00 0.00 26 1000.9
20260504200245 61 256 3.0 9.0 0.00 0.00 0.00 24 1000.9
20260504200041 61 256 4.0 9.0 0.00 0.00 0.00 27 1001.0
20260504195146 61 248 2.0 7.0 0.00 0.00 0.00 25 1001.0
20260504194940 61 263 2.0 6.0 0.00 0.00 0.00 26 1001.0
20260504194738 61 335 1.0 6.0 0.00 0.00 0.00 28 1001.0
20260504194528 61 328 1.0 5.0 0.00 0.00 0.00 29 1001.0
20260504194002 61 34 2.0 5.0 0.00 0.00 0.00 27 1001.3
20260504193438 61 35 3.0 10.0 0.00 0.00 0.00 26 1001.1
20260504192912 61 32 3.0 10.0 0.00 0.00 0.00 28 1001.2
20260504192707 61 51 3.0 15.0 0.00 0.00 0.00 30 1001.1
20260504192500 61 40 3.0 15.0 0.00 0.00 0.00 30 1001.1
20260504192254 61 42 4.0 15.0 0.00 0.00 0.00 29 1001.1
20260504192049 61 42 4.0 15.0 0.00 0.00 0.00 28 1001.1
20260504191518 62 69 6.0 15.0 0.00 0.00 0.00 26 1001.1
20260504191315 62 43 7.0 15.0 0.00 0.00 0.00 27 1001.1
20260504191115 62 44 7.0 15.0 0.00 0.00 0.00 27 1001.1
20260504190908 62 71 7.0 15.0 0.00 0.00 0.00 28 1001.2
20260504190709 62 350 7.0 14.0 0.00 0.00 0.00 30 1001.1
20260504190506 61 75 6.0 12.0 0.00 0.00 0.00 30 1001.1
20260504190307 61 38 6.0 12.0 0.00 0.00 0.00 29 1001.2
20260504190106 61 49 5.0 12.0 0.00 0.00 0.00 30 1001.2
20260504185856 60 26 4.0 12.0 0.00 0.00 0.00 28 1001.3
20260504185656 60 40 5.0 12.0 0.00 0.00 0.00 30 1001.3
20260504185456 60 17 6.0 12.0 0.00 0.00 0.00 29 1001.4
20260504185256 60 27 6.0 12.0 0.00 0.00 0.00 31 1001.4
20260504185054 59 348 7.0 12.0 0.00 0.00 0.00 29 1001.4
20260504184533 59 28 6.0 12.0 0.00 0.00 0.00 30 1001.6
20260504184333 59 25 4.0 10.0 0.00 0.00 0.00 29 1001.7
20260504184129 59 332 3.0 10.0 0.00 0.00 0.00 29 1001.7
20260504183918 59 284 3.0 9.0 0.00 0.00 0.00 28 1001.8
20260504183041 58 345 7.0 20.0 0.00 0.00 0.00 31 1001.9
20260504182841 58 345 8.0 20.0 0.00 0.00 0.00 29 1002.0
20260504182634 59 355 8.0 20.0 0.00 0.00 0.00 29 1002.0
20260504182430 59 296 7.0 20.0 0.00 0.00 0.00 29 1002.2
20260504182228 59 261 6.0 20.0 0.00 0.00 0.00 28 1002.1
20260504182020 59 337 5.0 20.0 0.00 0.00 0.00 27 1001.9
20260504181816 60 332 3.0 20.0 0.00 0.00 0.00 28 1002.1
20260504181611 60 292 3.0 6.0 0.00 0.00 0.00 27 1002.0
20260504181410 60 291 2.0 6.0 0.00 0.00 0.00 27 1001.9
20260504181204 60 290 2.0 7.0 0.00 0.00 0.00 27 1001.9
20260504180959 60 289 1.0 7.0 0.00 0.00 0.00 27 1001.9
20260504180756 60 229 1.0 7.0 0.00 0.00 0.00 28 1001.9
20260504180553 60 228 2.0 7.0 0.00 0.00 0.00 29 1001.9
20260504180343 60 190 2.0 7.0 0.00 0.00 0.00 28 1001.9
20260504180139 60 257 2.0 7.0 0.00 0.00 0.00 29 1002.0
20260504175937 60 257 3.0 7.0 0.00 0.00 0.00 25 1002.1
20260504175726 60 264 3.0 7.0 0.00 0.00 0.00 25 1002.2
20260504175520 60 248 3.0 7.0 0.00 0.00 0.00 27 1002.1
20260504175320 60 213 3.0 7.0 0.00 0.00 0.00 25 1002.2
20260504174754 60 257 4.0 11.0 0.00 0.00 0.00 26 1002.3
20260504174548 60 204 4.0 11.0 0.00 0.00 0.00 29 1002.4
20260504174345 60 254 5.0 11.0 0.00 0.00 0.00 27 1002.4
20260504174136 60 264 4.0 13.0 0.00 0.00 0.00 29 1002.4
20260504173926 59 274 3.0 13.0 0.00 0.00 0.00 31 1002.4
20260504173717 59 264 3.0 13.0 0.00 0.00 0.00 30 1002.6
20260504173507 59 254 4.0 13.0 0.00 0.00 0.00 29 1002.7
20260504173307 59 250 5.0 13.0 0.00 0.00 0.00 32 1002.7
20260504173100 59 250 6.0 14.0 0.00 0.00 0.00 31 1002.8
20260504172855 59 262 7.0 14.0 0.00 0.00 0.00 31 1002.8
20260504172650 59 238 8.0 14.0 0.00 0.00 0.00 30 1002.9
20260504172446 59 252 8.0 14.0 0.00 0.00 0.00 31 1003.0
20260504171922 59 269 8.0 17.0 0.00 0.00 0.00 34 1003.0
20260504171721 58 282 9.0 17.0 0.00 0.00 0.00 33 1002.9
20260504171152 58 225 9.0 19.0 0.00 0.00 0.00 33 1003.1
20260504170952 58 248 9.0 19.0 0.00 0.00 0.00 34 1003.1
20260504170743 58 284 9.0 19.0 0.00 0.00 0.00 35 1003.1
20260504170543 58 277 10.0 19.0 0.00 0.00 0.00 35 1003.1
20260504160402 59 249 6.0 12.0 0.00 0.00 0.00 35 1003.6
20260504160156 59 236 6.0 12.0 0.00 0.00 0.00 34 1003.7
20260504151037 57 230 9.0 19.0 0.00 0.00 0.00 35 1003.7
20260504150832 57 246 9.0 19.0 0.00 0.00 0.00 35 1003.7
20260504150631 57 263 9.0 19.0 0.00 0.00 0.00 37 1003.7
20260504150424 57 284 9.0 19.0 0.00 0.00 0.00 37 1003.7
20260504150212 57 292 10.0 19.0 0.00 0.00 0.00 37 1003.8
20260504141223 53 259 7.0 14.0 0.00 0.00 0.00 39 1003.7
20260504141023 53 260 7.0 14.0 0.00 0.00 0.00 41 1003.8
20260504140815 53 248 7.0 14.0 0.00 0.00 0.00 40 1003.8
20260504140616 53 234 6.0 14.0 0.00 0.00 0.00 39 1003.7
20260504140410 53 272 6.0 14.0 0.00 0.00 0.00 41 1003.7
20260504140204 53 298 6.0 14.0 0.00 0.00 0.00 41 1003.7
20260504130733 49 246 5.0 8.0 0.00 0.00 0.00 45 1004.2
20260504130528 49 238 4.0 8.0 0.00 0.00 0.00 46 1004.2
20260504130321 49 263 5.0 8.0 0.00 0.00 0.00 45 1004.1
20260504130120 49 248 5.0 8.0 0.00 0.00 0.00 44 1004.1
20260504120259 36 322 1.0 4.0 0.00 0.00 0.00 72 1004.1
20260504110535 35 355 0.0 0.0 0.00 0.00 0.00 73 1004.2
20260504110335 35 355 0.0 0.0 0.00 0.00 0.00 72 1004.2
20260504110129 35 355 0.0 0.0 0.00 0.00 0.00 72 1004.2
20260504100508 36 355 0.0 0.0 0.00 0.00 0.00 71 1004.1
20260504100308 36 355 0.0 0.0 0.00 0.00 0.00 70 1004.1
20260504100104 36 355 0.0 1.0 0.00 0.00 0.00 69 1004.1
20260504081458 36 355 0.0 0.0 0.00 0.00 0.00 71 1004.6
20260504081256 36 355 0.0 0.0 0.00 0.00 0.00 71 1004.7
20260504081056 36 355 0.0 0.0 0.00 0.00 0.00 71 1004.7
20260504080845 36 355 0.0 1.0 0.00 0.00 0.00 71 1004.7
20260504080324 36 355 0.0 0.0 0.00 0.00 0.00 72 1004.8
20260504080123 36 355 0.0 1.0 0.00 0.00 0.00 72 1004.9
20260504070315 37 355 0.0 2.0 0.00 0.00 0.00 70 1005.3
20260504070106 37 355 0.0 1.0 0.00 0.00 0.00 70 1005.3
20260504060237 39 355 1.0 2.0 0.00 0.00 0.00 66 1005.5